SCP
0 0 0 0 0 0 0 0 0 0 0 0 0 0 0 0 0 0 0 0 0 0 0 0 0 0 0 0 0 0 0 0 0 0 0 0 0 0 0 0 0 0 0
0 0 0 0 0 0 0 0 0 0 0 0 0 0 0 0 0 0 0 0 0 0 0 0 0 0 0 0 0 0 0 0 0 0 0 0 0 0 0 0 0 0 0
0 0 0 0 0 0 0 0 0 0 0 0 0 0 0 0 0 0 0 0 0 0 0 0 0 0 0 0 0 0 0 0 0 0 0 0 0 0 0 0 0 0 0
0 0 0 0 0 0 0 0 0 0 0 0 0 0 0 0 0 0 0 0 0 0 0 0 0 0 0 0 0 0 0 0 0 0 0 0 0 0 0 0 0 0 0
0 0 0 0 0 0 0 0 0 0 0 0 0 0 0 0 0 0 0 0 0 0 0 0 0 0 0 0 0 0 0 0 0 0 0 0 0 0 0 0 0 0 0
0 0 0 0 0 0 0 0 0 0 0 0 0 0 0 0 0 0 0 0 0 0 0 0 0 0 0 0 0 0 0 0 0 0 0 0 0 0 0 0 0 0 0
0 0 0 0 0 0 0 0 0 0 0 0 0 0 0 0 0 0 0 0 0 0 0 0 0 0 0 0 0 0 0 0 0 0 0 0 0 0 0 0 0 0 0
0 0 0 0 0 0 0 0 0 0 0 0 0 0 0 0 0 0 0 0 0 0 0 0 0 0 0 0 0 0 0 0 0 0 0 0 0 0 0 0 0 0 0
0 0 0 0 0 0 0 0 0 0 0 0 0 0 0 0 0 0 0 0 0 0 0 0 0 0 0 0 0 0 0 0 0 0 0 0 0 0 0 0 0 0 0
0 0 0 0 0 0 0 0 0 0 0 0 0 0 0 0 0 0 0 0 0 0 0 0 0 0 0 0 0 0 0 0 0 0 0 0 0 0 0 0 0 0 0
0 0 0 0 0 0 0 0 0 0 0 0 0 0 0 0 0 0 0 0 0 0 0 0 0 0 0 0 0 0 0 0 0 0 0 0 0 0 0 0 0 0 0
0 0 0 0 0 0 0 0 0 0 0 0 0 0 0 0 0 0 0 0 0 0 0 0 0 0 0 0 0 0 0 0 0 0 0 0 0 0 0 0 0 0 0
0 0 0 0 0 0 0 0 0 0 0 0 0 0 0 0 0 0 0 0 0 0 0 0 0 0 0 0 0 0 0 0 0 0 0 0 0 0 0 0 0 0 0
0 0 0 0 -0 -0 0 0 0 0 0 0 0 0 0 0 0 0 0 0 0 0 0 0 0 0 0 0 0 0 0 0 0 0 0 0 0 0 0 0 0 0 0
0 0 0 0 0 0 0 0 0 0 0 0 0 0 0 0 0 0 0 0 0 0 0 0 0 0 0 0 0 0 0 0 0 0 0 0 0 0 0 0 0 0 0
0 0 0 0 0 0 0 0 0 0 0 0 0 0 0 0 0 0 0 0 0 0 0 0 0 0 0 0 0 0 0 0 0 0 0 0 0 0 0 0 0 0 0
0 0 0 0 0 0 0 0 0 0 0 0 0 0 0 0 0 0 0 0 0 0 0 0 0 0 0 0 0 0 0 0 0 0 0 0 0 0 0 0 0 0 0
0 0 0 0 0 0 0 0 0 0 0 0 0 0 0 0 0 0 0 0 0 0 0 0 0 0 0 0 0 0 0 0 0 0 0 0 0 0 0 0 0 0 0
0 0 0 0 0 0 0 0 0 0 0 0 0 0 0 0 0 0 0 -0 -0 -0 0 0 0 0 0 0 0 0 0 0 0 0 0 0 0 0 0 0 0 0 0
0 0 0 0 0 0 0 0 0 0 0 0 0 0 0 0 0 0 0 0 -0 0 0 0 0 0 0 0 0 0 0 0 0 0 0 0 0 0 0 0 0 0 0
0 0 0 0 0 0 0 0 0 0 0 0 0 0 0 0 0 0 0 0 0 0 0 0 0 0 0 0 0 0 0 0 0 0 0 0 0 0 0 0 0 0 0
0 0 0 0 0 0 0 0 0 0 0 0 0 0 0 0 0 0 0 0 0 0 0 0 0 0 0 0 0 0 0 0 0 0 0 0 0 0 0 0 0 0 0
0 0 0 0 0 0 0 0 0 0 0 0 0 0 0 0 0 0 0 0 0 0 0 0 0 0 0 0 0 0 0 0 0 0 0 0 0 0 0 0 0 0 0
0 0 0 0 0 0 0 0 0 0 0 0 0 0 0 0 0 0 0 0 0 0 0 0 0 0 0 0 0 0 0 0 0 0 0 0 0 0 0 0 0 0 0
-0 -0 -0 0 0 0 0 0 0 0 0 0 0 0 0 0 0 0 0 0 0 0 0 0 0 0 0 0 0 0 0 0 0 0 0 0 0 0 0 0 0 0 0
-0 -0 0 0 0 0 0 0 0 0 0 0 0 0 0 0 0 0 0 0 0 0 0 0 0 0 0 0 0 0 0 0 0 0 0 0 0 0 0 0 0 0 0
Wind_Speed
3 4 10 10 11 11 11 11 11 11 11 11 11 11 11 10 10 10 9 8 8 7 7 7 7 6 6 6 5 5 5 5 5 5 4 4 3 4 4 4 4 2 3
6 6 11 11 11 11 11 11 11 11 11 11 11 11 10 10 9 9 8 8 7 7 6 6 5 5 5 5 4 5 5 5 4 4 4 3 2 3 3 3 3 2 3
9 7 9 12 12 12 11 11 11 11 11 10 10 10 9 9 9 8 7 6 6 6 5 5 4 4 4 4 3 3 4 4 5 4 4 1 0 2 3 3 3 3 3
10 7 8 12 12 12 12 11 11 11 10 10 10 9 8 8 7 7 6 6 5 5 5 5 4 4 3 3 3 3 3 4 5 5 2 1 0 2 3 3 3 3 3
9 7 9 13 12 12 12 11 11 10 10 9 9 8 7 7 7 6 6 5 5 5 4 4 3 3 3 3 3 3 3 4 5 4 2 1 0 2 3 3 3 3 3
9 7 9 13 13 12 11 11 10 10 9 8 8 7 7 6 6 6 5 5 4 4 3 3 3 3 3 2 3 3 4 5 4 2 2 1 1 2 3 3 3 3 3
8 7 8 13 12 12 11 10 10 9 8 7 7 6 5 5 5 4 4 3 3 3 3 3 3 3 3 3 4 4 4 5 2 1 1 1 1 3 3 4 4 3 2
10 7 8 12 12 11 11 10 9 8 7 6 5 4 3 3 3 2 2 1 1 2 2 2 3 4 4 5 5 5 5 4 2 2 2 1 2 3 3 3 3 3 2
9 7 5 6 8 10 10 9 8 7 6 5 4 3 2 1 1 0 1 1 1 1 2 3 4 5 5 6 6 7 6 5 1 1 2 1 2 3 3 4 3 2 1
8 7 6 5 4 4 5 8 7 6 5 3 2 1 1 1 2 3 3 3 3 3 3 4 5 6 6 7 7 7 7 4 1 1 1 2 3 3 4 4 3 2 1
7 5 5 5 4 4 3 5 5 4 3 2 1 1 1 1 2 2 4 3 4 4 5 5 6 7 7 6 7 7 5 1 1 1 1 3 3 4 4 4 3 2 1
7 7 6 6 5 4 4 2 1 1 0 0 1 1 1 1 1 2 2 3 4 5 6 6 7 6 4 2 4 4 1 1 1 1 2 3 3 4 4 3 3 2 1
8 7 6 6 5 4 2 2 1 0 0 1 1 0 1 1 2 2 1 2 3 4 3 5 5 2 2 1 1 1 1 0 0 1 1 3 3 3 3 3 3 2 2
7 7 7 6 5 4 3 2 2 1 0 0 1 1 1 1 2 2 1 2 2 1 2 2 2 2 2 2 1 1 1 0 0 1 2 3 3 3 3 3 2 2 2
7 6 6 7 6 4 3 2 2 2 1 1 1 1 2 2 2 2 1 2 2 2 2 2 2 2 2 2 2 1 1 1 0 0 1 2 2 2 3 3 3 2 2
7 7 6 6 6 5 3 3 2 2 1 1 2 2 3 2 2 2 2 2 2 2 2 2 2 2 2 2 2 2 1 1 1 0 1 1 2 2 3 3 2 2 2
7 7 7 7 6 6 4 3 2 2 2 2 1 2 3 2 2 2 2 2 2 2 3 2 3 3 3 3 3 3 2 1 1 1 0 1 1 2 3 3 3 2 2
7 7 7 7 6 5 4 4 3 2 3 2 2 2 3 3 3 2 2 2 2 2 2 2 2 3 3 2 2 2 2 2 1 1 0 0 1 1 2 2 3 2 3
8 8 6 6 6 5 5 4 3 3 2 2 2 2 2 3 3 2 2 2 2 2 3 2 2 2 2 3 2 2 2 2 2 1 1 1 1 1 1 1 1 2 2
7 8 7 6 6 5 4 3 3 3 2 1 2 2 2 2 3 3 2 3 3 2 3 3 2 2 1 2 2 3 3 3 2 2 1 1 1 1 0 0 0 1 1
7 7 7 6 5 4 3 2 2 1 0 1 1 1 2 2 3 3 2 2 3 2 2 2 2 3 2 2 3 3 4 3 3 2 2 1 2 1 1 0 0 0 0
7 7 6 7 5 4 3 2 2 2 1 0 1 1 1 2 2 2 2 2 2 2 3 3 2 2 2 2 2 2 3 5 4 3 2 2 2 2 1 1 0 1 1
7 7 7 6 5 4 4 3 3 3 3 2 2 1 1 1 1 2 2 2 2 1 1 1 1 2 1 2 1 2 2 1 3 3 3 3 2 1 1 1 0 1 1
6 6 6 6 5 4 5 4 4 3 2 2 1 1 1 1 0 1 1 2 1 1 1 1 1 1 1 1 2 1 1 2 1 2 3 3 3 2 2 1 1 0 1
6 6 6 6 5 4 4 5 5 3 2 1 0 0 1 1 1 0 1 1 1 1 1 1 2 1 1 1 0 1 1 1 1 1 1 3 3 2 2 2 1 0 1
4 5 5 5 4 4 4 4 5 4 3 2 1 0 1 1 1 1 0 0 0 0 1 1 1 1 1 1 0 0 1 1 1 1 1 1 2 3 2 2 1 1 1
Wind_Direction
135 144 129 121 114 110 107 106 104 102 99 97 95 94 90 85 83 82 81 80 81 80 79 77 76 74 71 69 65 60 54 51 50 47 43 50 61 73 77 79 80 69 79
142 138 127 121 115 111 107 105 104 102 98 95 93 91 88 85 82 80 77 76 75 76 76 74 76 72 67 62 57 52 43 34 29 25 26 32 55 82 89 87 84 82 86
131 130 125 120 116 112 109 107 104 101 98 94 91 88 85 82 80 77 75 73 70 70 70 69 69 65 60 53 42 36 27 17 11 11 20 20 69 110 107 100 89 80 83
131 128 125 122 119 116 113 109 105 102 99 96 92 88 85 80 77 74 70 66 64 64 62 62 58 50 45 39 23 11 5 360 1 7 23 353 270 127 120 111 94 82 85
128 126 128 125 122 119 115 112 108 104 101 99 95 91 86 80 75 71 66 63 61 59 58 57 50 34 24 18 7 356 350 351 3 7 6 349 306 144 130 121 106 92 104
129 130 134 129 126 122 119 116 112 108 104 101 98 94 88 82 77 71 67 63 60 55 50 46 34 18 4 344 333 331 337 339 356 359 357 340 234 170 139 133 127 111 115
134 136 138 134 132 129 125 121 117 113 109 106 103 98 92 85 79 72 69 60 53 42 31 23 7 350 332 318 311 312 318 330 346 339 342 328 237 185 149 136 135 124 123
140 141 142 142 139 136 132 129 126 122 119 117 114 109 102 93 80 74 73 60 36 15 2 351 337 328 320 312 302 301 305 312 325 332 312 284 229 193 159 143 136 132 135
142 142 143 146 144 143 141 140 139 137 136 134 127 123 126 144 171 197 240 256 282 296 308 314 311 310 310 305 299 296 298 304 306 279 290 285 236 197 165 149 145 138 137
144 147 150 151 148 148 152 153 153 155 158 164 163 157 217 275 269 269 270 265 269 283 294 301 302 302 302 302 299 293 295 306 303 284 282 263 240 201 173 155 158 150 150
148 155 159 161 165 166 172 174 166 165 170 181 224 270 296 323 315 284 277 265 274 289 301 304 303 301 303 308 307 301 302 296 258 272 267 261 239 199 173 159 159 173 192
163 168 168 167 170 175 181 153 162 182 200 231 274 304 334 327 309 313 305 293 300 313 318 316 316 314 310 316 318 326 318 266 241 262 253 248 221 187 176 167 172 191 221
167 165 168 171 167 166 161 150 150 122 2 295 296 316 33 29 10 16 4 340 339 342 337 331 339 340 325 313 314 325 326 154 217 268 258 233 203 187 187 189 191 199 212
156 163 169 164 156 158 147 149 153 148 146 34 357 78 84 66 44 32 16 351 351 342 338 338 336 331 325 323 332 338 357 140 192 256 255 230 212 208 207 207 199 206 212
157 161 158 150 150 148 139 149 137 141 135 108 67 64 86 79 60 42 19 13 3 1 358 350 355 356 351 352 1 36 22 19 96 219 267 240 227 233 232 228 211 215 220
161 157 150 146 149 142 141 137 135 133 118 83 62 64 79 84 73 51 24 11 3 3 5 0 8 12 0 6 12 18 12 8 32 336 283 291 268 262 254 234 213 208 210
158 150 144 145 141 135 133 134 123 118 107 90 68 64 74 74 68 62 41 12 356 0 7 11 13 21 17 13 4 358 5 8 9 335 317 294 288 279 259 243 213 197 185
152 146 146 141 133 126 124 120 111 108 106 100 83 64 64 66 72 68 50 8 355 12 17 18 16 17 13 8 349 341 356 357 354 333 324 321 295 295 278 254 216 191 178
154 144 138 134 133 129 122 114 104 98 97 98 86 73 61 61 66 72 52 10 14 29 20 15 30 27 11 355 339 355 354 354 344 353 359 6 2 315 282 265 219 177 161
149 141 139 136 137 128 111 94 77 69 61 64 78 80 76 63 61 62 47 23 29 36 20 16 17 18 14 350 7 13 351 348 358 8 348 2 2 4 359 224 207 224 165
142 142 145 142 145 129 113 111 104 100 80 50 66 90 87 78 69 65 48 30 30 37 19 13 23 21 8 10 36 6 351 355 8 9 0 8 16 13 43 109 150 169 270
156 156 152 150 150 144 145 141 141 138 143 120 39 48 60 77 67 70 62 40 29 31 22 21 38 29 360 21 71 55 4 351 349 1 1 13 8 12 19 29 197 191 200
153 162 160 161 156 151 138 110 85 63 45 31 18 355 340 45 67 68 67 63 38 51 24 7 41 63 13 352 56 115 106 309 321 334 349 360 360 6 348 331 311 194 187
164 162 155 154 151 147 135 131 132 133 149 211 222 259 309 8 47 74 74 72 58 47 24 347 56 90 89 6 349 25 152 168 135 332 335 342 350 358 341 338 321 221 165
158 154 155 150 153 149 141 144 138 141 168 191 106 30 344 337 330 345 70 75 59 28 6 6 19 47 95 120 17 347 30 55 110 135 315 330 343 333 329 317 308 254 188
141 140 144 145 152 150 144 147 149 153 154 140 133 188 312 325 323 317 28 67 44 10 359 1 14 41 58 102 120 130 139 141 199 150 196 293 317 312 323 321 315 274 242